{"data":{"norad_id":55582,"intl_designator":"2023-020P","name":"STARLINK-5741","alt_names":[],"object_type":"PAYLOAD","status":"ACTIVE","operator":null,"country":"US","launch_date":"2023-02-12","launch_site_code":"AFETR","launch_vehicle":null,"mission":null,"orbit_class":"UNKNOWN","rcs_meters":null,"size_class":null,"mass_kg":null,"dimensions":null,"purposes":["comms"],"wikipedia_slug":null,"has_3d_model":false,"image_url":null,"decayed_at":null,"tle_current":{"epoch":"2026-09-20T15:12:28.979136Z","epoch_age_seconds":88889,"freshness":"FRESH","line1":"1 55582U 23020P   26263.63366874 -.00000520  00000+0 -93763-5 0  9995","line2":"2 55582  43.0049 333.2823 0001252 286.4983  73.5731 15.27575374198854","mean_motion":15.27575374,"eccentricity":0.0001252,"inclination_deg":43.0049,"raan_deg":333.2823,"arg_perigee_deg":286.4983,"mean_anomaly_deg":73.5731,"bstar":-9.3763e-6,"rev_number":19885,"period_min":94.267034184331,"perigee_km":482.20392574932,"apogee_km":483.92197021629,"semimajor_km":6861.1999479828,"source":"CELESTRAK","updated_at":"2026-09-21T09:00:33.265587Z"}}}